Location: Alfortville
(48.8058°N, 2.4204°E)
Time: 03:50:15
(UTC+00:00)

Cosmos 1980 Rocket - Pass Details

Date: 23 May 2022
Orbit: 827 x 851 km, 71.0° (Epoch: 05 July)

Event Time Altitude Azimuth Distance (km) Brightness Sun altitude
Exits shadow 21:09:29 - 194° (SSW) 3,264 4.9 -12.1°
Reaches altitude 10° 21:11:39 10° 191° (S) 2,440 4.2 -12.3°
Maximum altitude 21:17:09 61° 112° (ESE) 953 2.2 -12.9°
Drops below altitude 10° 21:22:43 10° 34° (NE) 2,473 4.9 -13.4°
Sets 21:25:13 0° 31° (NNE) 3,415 5.7 -13.6°
